Temperature
10 10 10 10 10 10 10 10 10 10 10 10 10 10 10 10 10 10 10 10 10 9 9 9 9 9 9 9 9 9 8 8 8 8 8 8 8 8 8 8 8 8 9
10 10 10 10 10 10 10 10 10 10 10 9 9 9 9 9 9 9 9 9 9 9 9 9 8 8 8 8 8 8 8 8 8 8 8 8 8 8 8 8 8 8 8
9 9 9 9 9 9 9 9 9 9 9 9 9 9 9 9 9 9 9 9 9 9 9 8 8 8 8 8 8 8 7 7 7 7 7 7 7 7 7 7 7 8 8
9 9 9 9 9 9 9 9 9 9 9 9 9 9 9 8 8 8 8 8 8 8 8 8 8 8 8 8 7 7 7 7 7 7 7 7 7 7 7 7 7 7 7
8 8 8 8 8 8 8 8 8 8 8 8 8 8 8 8 8 8 8 8 8 8 8 7 7 7 7 7 7 7 6 6 6 6 6 6 6 6 6 6 6 7 7
8 7 8 7 7 7 8 8 8 7 7 8 7 7 7 7 7 7 7 7 7 7 7 7 7 7 6 6 6 6 6 6 6 5 5 5 5 5 6 6 6 6 6
7 7 7 7 7 7 7 7 7 7 7 7 7 7 7 6 6 6 6 6 6 6 6 6 6 6 6 6 6 6 6 5 5 5 5 5 5 5 5 5 5 5 5
7 7 7 6 6 6 6 6 6 6 6 6 6 6 5 6 6 6 6 5 5 5 6 6 5 5 5 5 5 5 5 5 5 4 4 4 4 4 4 4 5 5 5
6 6 6 6 6 6 6 6 6 5 5 5 5 5 5 4 5 5 5 5 5 5 5 5 5 5 5 4 4 4 4 4 4 4 4 4 4 4 4 4 4 4 4
5 5 5 5 5 5 5 5 5 5 5 5 4 4 4 4 4 4 4 4 4 4 4 4 4 4 4 3 3 3 3 3 3 3 3 3 3 3 3 3 3 3 3
5 5 5 5 5 5 5 5 4 4 4 4 4 4 4 3 3 3 3 4 4 4 4 4 3 3 3 3 3 3 3 3 3 3 3 3 3 3 3 3 3 3 3
5 5 4 4 4 4 4 4 4 4 4 3 3 3 3 3 3 2 2 3 3 3 3 3 3 3 3 2 2 2 2 2 2 2 2 2 2 2 2 2 2 2 2
4 4 4 4 4 4 4 3 3 3 3 3 3 3 3 2 2 2 2 2 2 2 2 2 2 2 2 2 2 2 2 2 2 2 2 2 2 2 2 2 2 2 2
4 3 3 3 3 3 3 3 3 3 3 3 2 2 2 2 2 2 1 1 1 1 1 1 2 2 1 1 1 1 1 1 1 1 1 1 1 1 1 1 1 1 1
3 3 3 3 3 3 2 2 2 2 2 2 2 2 2 2 2 1 1 1 -0 -0 -0 1 1 1 1 1 1 1 1 1 1 1 1 1 1 1 1 0 0 0 0
3 2 2 2 2 2 2 2 2 2 2 1 1 1 1 1 1 1 1 0 -0 -1 -1 -0 -0 0 0 0 0 0 0 0 0 0 0 0 0 -0 -0 -0 -0 -0 -0
2 2 2 2 2 2 2 2 1 1 1 1 1 1 1 1 1 0 0 -0 -0 -1 -1 -0 -0 -0 -0 -0 0 0 0 0 0 0 -0 -0 -0 -0 -0 -1 -1 -1 -1
2 2 2 1 2 1 1 1 1 1 1 1 0 0 0 0 0 -0 -0 -0 -1 -1 -1 -1 -1 -1 -1 -1 -1 -0 -0 -0 -0 -0 -1 -1 -1 -1 -1 -1 -1 -1 -1
1 1 1 1 1 1 1 1 1 1 0 0 0 0 -0 -0 -0 -0 -0 -1 -1 -1 -1 -1 -1 -1 -1 -1 -1 -1 -1 -1 -1 -1 -1 -1 -1 -1 -1 -1 -2 -2 -2
1 1 1 1 1 1 1 0 0 0 -0 -0 -0 -0 -0 -1 -1 -1 -1 -1 -1 -1 -2 -2 -2 -2 -2 -2 -2 -2 -1 -1 -1 -1 -1 -1 -1 -2 -2 -2 -2 -2 -2
1 1 0 0 0 0 0 -0 -0 -0 -0 -0 -0 -1 -1 -1 -1 -1 -1 -2 -2 -2 -2 -2 -2 -2 -2 -2 -2 -2 -2 -2 -2 -2 -2 -1 -2 -2 -2 -2 -2 -2 -2
0 0 0 -0 -0 -0 -0 -1 -1 -1 -1 -1 -1 -1 -1 -1 -1 -2 -2 -2 -2 -2 -2 -3 -3 -3 -3 -3 -3 -3 -3 -3 -3 -3 -2 -2 -2 -2 -2 -2 -2 -3 -3
-0 -0 -0 -0 -0 -0 -1 -1 -1 -1 -1 -1 -1 -1 -2 -2 -2 -2 -2 -2 -2 -2 -3 -3 -3 -3 -3 -3 -3 -3 -3 -3 -3 -3 -3 -2 -2 -2 -2 -3 -3 -3 -3
-1 -1 -1 -1 -1 -1 -1 -1 -1 -2 -2 -2 -2 -2 -2 -2 -2 -2 -2 -2 -2 -3 -3 -3 -3 -3 -3 -3 -4 -4 -4 -4 -3 -4 -4 -3 -3 -3 -3 -3 -3 -3 -3
-1 -1 -1 -1 -1 -1 -2 -2 -2 -2 -2 -2 -2 -2 -2 -3 -3 -3 -3 -3 -3 -3 -3 -3 -3 -3 -3 -3 -4 -4 -4 -4 -4 -4 -4 -4 -4 -3 -3 -3 -3 -3 -4
-1 -2 -1 -2 -2 -2 -2 -2 -2 -2 -2 -2 -2 -3 -3 -3 -3 -3 -3 -3 -3 -3 -3 -3 -3 -3 -4 -3 -4 -4 -4 -5 -5 -5 -4 -5 -4 -5 -4 -4 -4 -4 -4
Wind_Speed
4 4 4 5 5 5 5 5 5 6 6 6 6 6 6 6 6 6 5 7 8 7 6 6 5 5 4 4 5 5 6 6 7 7 8 8 9 9 8 9 9 8 8
4 4 4 4 4 4 4 4 4 4 4 4 4 5 5 5 5 5 5 6 8 9 9 8 7 7 7 7 7 7 7 7 7 8 8 9 9 9 9 9 9 9 9
4 4 3 3 3 4 4 5 5 4 4 3 3 4 4 4 4 5 6 7 7 9 10 9 9 8 8 8 7 7 8 8 8 8 8 9 9 9 10 9 9 10 10
4 4 3 2 3 4 4 3 3 2 2 2 2 2 3 4 4 4 6 7 7 7 8 9 9 9 8 8 8 8 8 9 9 9 9 10 10 10 10 10 9 9 10
4 4 3 2 3 3 3 2 2 2 2 2 2 2 2 2 3 4 5 6 7 7 8 8 9 9 9 8 8 8 9 9 9 9 9 10 10 11 11 11 10 10 10
3 3 3 3 3 2 2 2 2 2 1 1 2 2 2 2 2 3 3 4 6 7 7 8 8 8 9 9 9 9 9 9 9 10 9 10 11 11 11 11 11 11 11
3 3 2 2 2 2 1 2 2 2 2 2 2 2 2 2 2 2 3 3 4 5 6 7 7 8 8 9 9 9 10 10 10 10 10 10 11 12 12 12 12 12 12
2 2 3 2 1 2 2 2 2 1 1 2 2 1 1 2 2 2 2 2 3 4 5 6 6 6 7 7 8 9 10 10 10 10 11 11 11 12 12 13 13 13 12
2 2 2 2 2 2 2 1 2 2 1 0 1 2 1 1 2 2 1 1 2 2 3 4 4 5 6 7 8 8 9 10 11 11 12 12 12 13 13 13 13 13 13
2 2 2 3 2 2 2 2 2 1 2 1 0 1 1 2 1 2 2 2 2 2 2 3 4 5 5 6 7 9 10 10 11 12 13 13 13 13 14 13 13 13 13
1 2 2 2 2 2 2 2 2 2 1 2 1 1 1 1 1 2 3 3 3 2 2 3 3 3 4 5 6 8 10 10 11 12 13 13 14 14 14 14 14 14 14
1 1 1 2 2 2 2 2 2 2 2 2 2 1 2 1 2 2 2 3 4 3 3 2 2 3 4 4 6 9 10 10 12 12 13 13 14 14 14 14 14 15 15
2 2 2 2 2 3 3 3 2 2 3 2 2 2 2 2 2 2 2 3 4 3 2 2 3 3 4 4 6 9 9 11 12 12 13 14 14 14 14 14 15 15 15
3 2 3 3 2 2 2 3 2 2 2 2 2 2 2 2 2 2 2 2 3 3 3 4 2 3 4 5 7 9 9 11 12 13 13 14 13 13 13 14 14 15 15
2 3 3 3 2 2 2 2 2 2 2 2 2 2 2 2 2 2 2 2 2 4 4 3 2 2 4 6 8 8 9 11 12 13 13 13 13 13 13 14 14 15 15
2 2 2 2 2 2 3 2 2 2 2 2 2 2 2 2 2 2 2 2 3 4 5 3 3 4 6 7 9 9 10 12 12 13 13 13 13 13 14 14 14 15 15
3 3 3 3 3 2 3 3 3 3 3 3 2 3 3 3 2 2 2 3 3 3 6 5 3 4 4 5 7 8 9 9 10 12 13 13 13 13 13 14 14 14 15
2 3 3 3 3 3 3 3 4 3 4 4 4 4 4 3 3 3 3 4 4 4 5 7 4 4 5 5 5 6 7 8 9 11 13 13 12 13 13 13 14 14 15
2 2 2 3 3 3 3 3 4 4 4 5 5 5 5 4 4 4 4 4 4 4 4 4 5 4 4 4 4 5 6 6 8 10 11 11 11 12 13 13 13 14 15
2 2 3 3 3 3 3 3 3 3 4 4 4 4 5 5 6 5 4 4 4 3 3 3 4 4 4 4 3 4 6 4 5 7 9 10 11 12 12 13 13 14 15
2 2 2 2 2 3 3 4 4 4 4 4 4 4 5 6 7 5 4 4 3 3 3 4 4 4 4 4 4 4 6 6 5 4 4 5 6 7 8 11 12 13 14
2 2 2 3 3 3 5 6 4 4 4 4 4 4 4 5 6 7 7 6 5 4 4 4 4 5 6 5 4 5 5 6 5 2 4 6 4 5 6 8 12 13 13
2 2 3 3 4 5 6 6 6 4 4 4 4 4 4 4 5 3 5 6 6 7 7 5 5 6 6 5 5 5 5 5 6 5 5 6 4 6 6 9 12 12 13
3 3 3 4 4 5 6 6 5 3 3 4 4 4 4 4 4 4 4 4 4 5 6 5 5 6 5 5 5 5 5 5 6 4 3 4 5 5 6 8 10 10 12
3 3 3 4 4 5 6 6 5 3 3 4 4 4 4 5 7 6 4 4 4 4 5 6 7 7 7 8 5 3 3 4 5 4 1 2 3 4 5 4 6 8 10
3 3 3 3 4 5 6 6 5 3 3 4 4 4 6 6 7 6 4 4 5 4 4 4 4 5 5 5 6 3 3 4 3 3 1 1 3 3 4 3 3 5 8
Wind_Direction
74 64 64 64 65 68 69 68 71 68 63 57 54 53 47 40 34 30 27 29 29 28 30 34 40 42 37 28 21 20 20 15 16 10 4 2 360 354 351 349 345 336 334
84 75 61 60 63 69 74 76 79 77 70 63 52 47 45 40 36 31 31 33 35 33 31 31 33 31 29 34 34 29 19 12 9 6 1 355 352 350 349 345 340 340 332
94 92 83 68 59 67 74 76 75 73 69 59 44 38 41 37 41 44 42 42 41 37 33 33 31 28 26 27 27 19 12 8 3 358 353 349 347 343 341 337 336 337 338
97 95 91 70 59 71 75 83 77 70 58 49 34 22 33 34 41 53 56 53 51 45 36 33 30 27 23 20 19 14 6 360 354 353 355 351 345 340 339 337 335 333 333
109 104 96 76 74 72 72 76 67 80 71 43 30 24 25 27 31 60 61 57 54 49 41 33 28 24 21 16 15 9 0 354 352 349 344 344 342 339 336 335 333 331 331
116 110 100 85 85 78 62 70 75 62 85 58 47 28 13 16 34 53 59 55 51 47 41 33 24 16 17 17 11 4 357 352 348 345 340 339 337 334 329 329 328 326 326
120 120 111 103 97 103 96 86 87 71 55 52 62 27 12 20 37 41 41 47 41 38 37 31 23 17 11 11 7 360 354 350 346 342 337 335 336 334 331 328 325 321 320
122 135 127 134 124 108 91 83 83 86 63 60 85 84 2 346 2 10 17 41 23 25 25 19 16 14 8 3 355 355 350 346 340 337 334 330 328 326 325 323 321 320 320
133 140 151 148 147 142 149 145 126 122 137 49 50 117 134 247 302 317 321 349 1 8 358 356 357 359 0 356 349 348 345 342 338 334 332 329 324 321 319 319 320 320 321
158 160 161 162 170 166 164 170 139 153 146 168 33 51 126 164 199 300 306 307 327 330 330 330 332 335 344 346 343 340 340 338 334 330 329 326 324 321 319 319 318 317 317
191 182 169 170 174 177 173 163 162 164 161 169 174 147 94 78 183 215 279 300 312 293 296 296 299 307 317 329 331 333 335 334 331 328 324 322 320 319 319 318 317 315 316
211 211 191 186 189 184 185 186 181 177 183 175 181 177 181 192 202 207 252 286 296 290 292 279 278 287 295 314 322 328 329 328 327 324 320 318 316 315 316 316 315 314 315
225 221 215 207 203 202 197 187 179 186 186 180 194 206 212 223 206 204 240 278 290 297 292 279 267 282 291 311 315 322 325 323 322 321 319 317 314 312 314 313 312 313 313
223 216 218 221 219 210 201 186 184 193 180 187 204 209 227 242 219 206 212 247 298 294 279 275 284 271 292 305 310 319 317 317 318 317 315 313 313 312 312 311 310 310 310
212 204 208 212 213 205 192 180 188 199 191 198 205 216 227 241 234 226 221 209 231 282 287 272 279 286 303 306 310 314 311 312 313 313 312 311 309 310 311 310 309 308 307
202 190 195 202 202 201 192 180 187 196 194 214 216 219 235 242 237 231 233 230 223 245 271 270 266 288 300 303 307 310 306 310 311 310 309 309 309 309 311 309 307 306 306
195 191 197 199 201 205 198 192 207 201 206 225 233 234 243 237 240 242 239 238 236 234 262 279 271 281 282 290 302 302 302 303 303 305 306 306 305 307 310 310 308 306 307
197 193 194 199 208 210 206 203 213 217 216 229 238 237 243 241 241 244 239 244 246 239 250 275 283 282 279 284 290 294 304 305 302 304 304 305 305 307 310 309 309 307 307
204 192 190 203 210 213 216 218 217 223 224 229 231 234 240 235 243 248 248 250 251 252 245 259 280 287 286 292 297 299 297 300 305 308 306 307 307 308 310 311 312 310 309
206 209 215 215 213 214 218 220 219 227 231 234 234 234 236 234 239 242 249 248 252 254 254 265 285 293 293 295 292 305 311 307 305 311 307 306 307 309 311 312 313 312 310
218 214 223 229 224 219 221 220 221 225 227 236 241 241 241 244 249 247 252 249 247 253 258 269 284 296 298 308 301 302 303 308 299 295 303 305 309 309 312 312 312 312 312
228 221 226 229 232 237 237 236 228 224 225 232 242 247 250 254 259 263 268 267 258 254 259 267 276 284 289 291 295 295 301 310 306 304 317 305 304 299 305 308 309 312 314
227 232 237 233 241 242 239 237 230 225 225 233 238 244 262 267 268 256 265 274 273 269 262 260 270 273 282 282 285 286 285 291 288 293 308 296 301 295 300 304 311 314 320
230 237 241 239 242 245 242 241 238 231 231 238 239 239 245 255 256 255 255 266 268 268 266 259 255 265 273 271 264 276 278 286 285 279 277 286 298 294 301 302 309 320 328
240 239 238 235 237 248 246 243 240 224 233 243 246 246 247 251 260 265 260 262 272 277 282 276 274 279 285 286 284 285 286 292 298 295 261 273 296 307 300 290 306 326 334
240 246 251 242 239 246 248 244 236 224 235 248 253 252 256 259 267 265 252 248 260 273 282 292 291 294 296 289 286 266 259 272 289 289 269 292 295 322 311 289 300 319 326
Height
1528 1529 1529 1530 1530 1531 1531 1531 1531 1531 1532 1532 1533 1533 1533 1533 1533 1533 1533 1533 1533 1533 1533 1533 1532 1532 1532 1531 1531 1530 1530 1529 1528 1527 1526 1525 1525 1524 1523 1522 1521 1520 1519
1526 1527 1528 1529 1529 1529 1529 1530 1530 1530 1530 1531 1531 1531 1531 1531 1531 1531 1532 1531 1531 1531 1531 1531 1531 1530 1530 1529 1529 1528 1527 1527 1526 1525 1524 1523 1522 1522 1521 1520 1519 1518 1517
1524 1525 1526 1527 1527 1527 1528 1528 1528 1528 1528 1529 1529 1529 1529 1529 1529 1529 1529 1529 1530 1529 1529 1529 1528 1528 1527 1527 1526 1526 1525 1524 1523 1522 1521 1521 1520 1519 1518 1517 1516 1515 1514
1523 1523 1524 1525 1525 1525 1526 1526 1526 1526 1526 1526 1527 1527 1527 1527 1527 1527 1527 1527 1527 1527 1527 1526 1526 1525 1525 1525 1524 1523 1523 1522 1521 1520 1519 1518 1517 1516 1515 1514 1513 1512 1511
1521 1521 1522 1522 1523 1523 1524 1524 1524 1524 1524 1524 1524 1525 1525 1525 1524 1524 1524 1525 1525 1524 1524 1524 1523 1523 1522 1522 1521 1521 1520 1519 1518 1517 1516 1515 1514 1513 1512 1511 1510 1508 1507
1519 1519 1520 1520 1520 1521 1521 1521 1521 1521 1522 1522 1522 1522 1522 1522 1522 1522 1522 1522 1522 1522 1521 1521 1521 1520 1520 1519 1519 1518 1517 1516 1515 1513 1512 1512 1511 1510 1508 1507 1506 1505 1504
1516 1517 1517 1518 1518 1518 1518 1519 1519 1519 1519 1519 1519 1519 1520 1520 1520 1519 1520 1520 1519 1519 1519 1519 1518 1518 1517 1516 1515 1514 1513 1512 1511 1510 1509 1508 1507 1506 1505 1504 1503 1502 1500
1514 1514 1515 1515 1515 1516 1516 1516 1516 1517 1517 1517 1517 1517 1517 1519 1517 1517 1517 1517 1517 1517 1516 1516 1515 1514 1514 1512 1512 1511 1510 1509 1508 1506 1505 1504 1503 1502 1501 1500 1499 1498 1497
1511 1512 1512 1513 1513 1513 1513 1514 1514 1514 1515 1515 1515 1516 1516 1515 1515 1515 1515 1515 1514 1514 1513 1512 1511 1511 1510 1509 1508 1507 1506 1505 1504 1503 1502 1500 1499 1499 1498 1496 1495 1494 1492
1508 1509 1509 1510 1510 1510 1510 1510 1511 1512 1512 1512 1513 1514 1515 1514 1514 1512 1512 1512 1511 1511 1510 1509 1508 1508 1507 1506 1505 1504 1502 1501 1500 1498 1497 1496 1495 1494 1493 1492 1491 1489 1488
1505 1506 1506 1506 1507 1507 1507 1507 1508 1509 1509 1510 1510 1510 1511 1511 1511 1511 1508 1508 1508 1507 1507 1506 1505 1504 1503 1502 1501 1500 1498 1497 1496 1494 1493 1492 1491 1490 1488 1487 1486 1485 1483
1502 1502 1503 1503 1503 1504 1504 1505 1505 1506 1506 1506 1507 1507 1507 1508 1508 1507 1506 1504 1503 1503 1503 1502 1501 1501 1500 1499 1497 1496 1494 1493 1492 1490 1489 1487 1486 1485 1484 1482 1481 1480 1478
1498 1499 1499 1499 1500 1500 1501 1501 1502 1502 1503 1503 1503 1504 1504 1504 1504 1504 1504 1502 1500 1499 1498 1498 1497 1497 1496 1495 1494 1492 1491 1489 1488 1486 1485 1483 1482 1480 1479 1477 1476 1474 1473
1495 1495 1495 1496 1497 1497 1497 1498 1498 1499 1499 1499 1500 1500 1501 1501 1501 1501 1501 1500 1497 1496 1495 1494 1493 1493 1492 1491 1490 1488 1487 1485 1484 1482 1480 1479 1477 1475 1474 1472 1471 1469 1467
1491 1492 1492 1493 1493 1493 1494 1494 1494 1495 1496 1496 1496 1497 1497 1497 1497 1497 1497 1496 1496 1493 1490 1490 1490 1489 1488 1487 1486 1484 1483 1481 1479 1478 1476 1474 1472 1471 1469 1467 1466 1464 1462
1488 1488 1489 1489 1490 1490 1490 1491 1491 1491 1492 1492 1492 1493 1493 1493 1493 1493 1493 1492 1492 1491 1488 1486 1486 1486 1484 1483 1482 1480 1478 1477 1475 1473 1471 1469 1468 1466 1464 1462 1461 1459 1457
1484 1485 1485 1486 1486 1487 1487 1487 1487 1488 1488 1488 1489 1489 1489 1489 1489 1489 1488 1488 1487 1487 1485 1483 1483 1482 1480 1479 1477 1476 1474 1472 1470 1469 1467 1465 1463 1461 1459 1458 1456 1454 1452
1481 1481 1482 1483 1483 1484 1484 1484 1484 1484 1484 1484 1484 1484 1485 1485 1484 1484 1484 1483 1483 1482 1482 1479 1478 1477 1476 1475 1473 1471 1469 1468 1466 1464 1462 1460 1458 1457 1455 1453 1451 1449 1447
1477 1478 1478 1479 1480 1480 1480 1480 1480 1480 1480 1480 1480 1480 1481 1480 1480 1480 1479 1479 1478 1478 1477 1476 1474 1473 1472 1470 1468 1466 1465 1463 1462 1460 1458 1456 1454 1452 1450 1448 1446 1444 1442
1474 1474 1475 1475 1476 1476 1476 1477 1476 1477 1476 1476 1476 1476 1476 1476 1476 1475 1474 1474 1474 1474 1473 1472 1470 1469 1467 1466 1464 1462 1460 1459 1457 1455 1453 1452 1450 1448 1446 1444 1441 1439 1437
1471 1471 1471 1472 1472 1472 1473 1473 1473 1473 1473 1472 1472 1472 1472 1472 1471 1471 1471 1470 1470 1469 1469 1468 1466 1465 1463 1462 1460 1458 1456 1454 1452 1451 1449 1447 1445 1443 1441 1439 1437 1434 1432
1467 1467 1467 1468 1468 1468 1469 1469 1469 1469 1469 1468 1468 1468 1468 1468 1467 1467 1467 1466 1466 1466 1465 1464 1462 1461 1459 1458 1456 1455 1453 1450 1447 1447 1445 1442 1441 1439 1437 1435 1433 1430 1428
1463 1463 1464 1464 1464 1465 1465 1465 1465 1465 1464 1464 1464 1464 1463 1463 1463 1462 1462 1462 1462 1461 1461 1460 1458 1457 1455 1454 1453 1451 1449 1447 1445 1443 1441 1438 1437 1435 1433 1431 1429 1427 1424
1459 1460 1460 1460 1460 1461 1461 1461 1461 1461 1460 1460 1460 1459 1459 1458 1458 1458 1457 1457 1456 1456 1456 1455 1454 1452 1452 1450 1449 1448 1446 1443 1442 1440 1438 1435 1433 1431 1429 1427 1425 1423 1421
1455 1456 1456 1456 1456 1456 1457 1457 1457 1457 1456 1456 1455 1455 1454 1454 1454 1453 1453 1452 1452 1451 1451 1450 1450 1449 1447 1446 1445 1444 1442 1440 1437 1436 1435 1433 1430 1427 1425 1424 1422 1420 1417
1451 1452 1452 1452 1452 1452 1453 1453 1453 1452 1452 1451 1451 1451 1450 1450 1450 1449 1448 1448 1447 1446 1446 1445 1445 1444 1443 1442 1441 1440 1438 1437 1435 1433 1431 1430 1427 1425 1422 1420 1419 1417 1414